AEHF-3 (USA 246)

Last updated on Sun Apr 12 2026 00:02:53 GMT+0000 (Coordinated Universal Time)

1 39256U 13050A 26101.49607728 .00000035 00000+0 00000+0 0 9993 2 39256 5.1306 67.7939 0089584 188.5631 357.6768 1.00273513 44988
UTC large
Height (km)
Speed (km/s)
/
Latitude / Longitude
Inclination (degrees)
Orbital Period (minutes)
Azimuth
Elevation
Range (km)
Doppler Factor

Next 0 passes for location: London (51.5072 / 0.1276)

Sorry there are no passes over London.
AEHF-3 (USA 246)